Time,TemperatureF,DewpointF,PressureIn,WindDirection,WindDirectionDegrees,WindSpeedMPH,WindSpeedGustMPH,Humidity,HourlyPrecipIn,Conditions,Clouds,dailyrainin,SoftwareType,DateUTC
2013-10-03 00:01:00,74.1,73.0,30.00,ENE,77,0.0,0.0,97,0.00,,,0.00,weatherlink.com 1.10,2013-10-03 05:01:00,
2013-10-03 00:16:00,73.8,73.0,30.00,ENE,78,0.0,0.0,97,0.00,,,0.00,weatherlink.com 1.10,2013-10-03 05:16:00,
2013-10-03 00:31:00,73.7,73.0,30.00,ENE,74,0.0,0.0,98,0.00,,,0.00,weatherlink.com 1.10,2013-10-03 05:31:00,
2013-10-03 00:46:00,73.6,73.0,30.00,ENE,74,0.0,0.0,98,0.00,,,0.00,weatherlink.com 1.10,2013-10-03 05:46:00,
2013-10-03 01:01:00,73.6,73.0,29.99,NE,42,0.0,0.0,98,0.00,,,0.00,weatherlink.com 1.10,2013-10-03 06:01:00,
2013-10-03 01:16:00,73.5,73.0,29.99,NNE,19,0.0,0.0,98,0.00,,,0.00,weatherlink.com 1.10,2013-10-03 06:16:00,
2013-10-03 01:31:00,73.5,73.0,29.99,ENE,60,0.0,1.0,99,0.00,,,0.00,weatherlink.com 1.10,2013-10-03 06:31:00,
2013-10-03 01:46:00,73.5,73.0,29.99,East,86,0.0,0.0,99,0.00,,,0.00,weatherlink.com 1.10,2013-10-03 06:46:00,
2013-10-03 02:01:00,73.5,73.0,29.98,ENE,76,0.0,0.0,99,0.00,,,0.00,weatherlink.com 1.10,2013-10-03 07:01:00,
2013-10-03 02:16:00,73.5,73.0,29.98,ENE,73,0.0,0.0,99,0.00,,,0.00,weatherlink.com 1.10,2013-10-03 07:16:00,
2013-10-03 02:31:00,73.4,73.0,29.97,ENE,74,0.0,0.0,99,0.00,,,0.00,weatherlink.com 1.10,2013-10-03 07:31:00,
2013-10-03 02:46:00,73.4,73.0,29.97,ESE,105,0.0,0.0,99,0.00,,,0.00,weatherlink.com 1.10,2013-10-03 07:46:00,
2013-10-03 03:01:00,73.4,73.0,29.97,East,80,0.0,0.0,99,0.00,,,0.00,weatherlink.com 1.10,2013-10-03 08:01:00,
2013-10-03 03:16:00,73.5,73.0,29.96,NE,48,0.0,0.0,99,0.00,,,0.00,weatherlink.com 1.10,2013-10-03 08:16:00,
2013-10-03 03:31:00,73.4,73.0,29.96,ENE,59,0.0,0.0,100,0.00,,,0.00,weatherlink.com 1.10,2013-10-03 08:31:00,
2013-10-03 03:46:00,73.5,74.0,29.96,ENE,74,0.0,2.0,100,0.00,,,0.00,weatherlink.com 1.10,2013-10-03 08:46:00,
2013-10-03 04:01:00,73.4,73.0,29.96,East,83,0.0,1.0,99,0.00,,,0.00,weatherlink.com 1.10,2013-10-03 09:01:00,
2013-10-03 04:16:00,73.2,73.0,29.96,NE,41,0.0,1.0,99,0.00,,,0.00,weatherlink.com 1.10,2013-10-03 09:16:00,
2013-10-03 04:32:00,72.9,73.0,29.95,NE,34,0.0,0.0,99,0.00,,,0.00,weatherlink.com 1.10,2013-10-03 09:32:00,
2013-10-03 04:47:00,72.7,72.0,29.95,NE,34,0.0,0.0,99,0.00,,,0.00,weatherlink.com 1.10,2013-10-03 09:47:00,
2013-10-03 05:02:00,72.4,72.0,29.96,NNE,32,0.0,0.0,99,0.00,,,0.00,weatherlink.com 1.10,2013-10-03 10:02:00,
2013-10-03 05:17:00,72.4,72.0,29.96,East,90,0.0,0.0,100,0.00,,,0.00,weatherlink.com 1.10,2013-10-03 10:17:00,
2013-10-03 05:32:00,72.4,72.0,29.96,NNE,30,0.0,0.0,99,0.00,,,0.00,weatherlink.com 1.10,2013-10-03 10:32:00,
2013-10-03 05:47:00,72.3,72.0,29.96,ENE,58,0.0,0.0,100,0.00,,,0.00,weatherlink.com 1.10,2013-10-03 10:47:00,
2013-10-03 06:02:00,72.3,72.0,29.96,ENE,74,0.0,0.0,100,0.00,,,0.00,weatherlink.com 1.10,2013-10-03 11:02:00,
2013-10-03 06:17:00,72.4,72.0,29.97,East,82,0.0,0.0,100,0.00,,,0.00,weatherlink.com 1.10,2013-10-03 11:17:00,
2013-10-03 06:32:00,72.5,73.0,29.97,East,93,0.0,2.0,100,0.00,,,0.00,weatherlink.com 1.10,2013-10-03 11:32:00,
2013-10-03 06:47:00,72.5,73.0,29.97,East,79,0.0,1.0,100,0.00,,,0.00,weatherlink.com 1.10,2013-10-03 11:47:00,
2013-10-03 07:02:00,72.7,73.0,29.98,East,86,0.0,0.0,100,0.00,,,0.00,weatherlink.com 1.10,2013-10-03 12:02:00,
2013-10-03 07:17:00,72.7,73.0,29.98,ESE,113,0.0,0.0,100,0.00,,,0.00,weatherlink.com 1.10,2013-10-03 12:17:00,
2013-10-03 07:32:00,73.6,74.0,29.99,NE,48,0.0,2.0,100,0.00,,,0.00,weatherlink.com 1.10,2013-10-03 12:32:00,
2013-10-03 07:47:00,74.3,74.0,29.99,East,84,0.0,2.0,99,0.00,,,0.00,weatherlink.com 1.10,2013-10-03 12:47:00,
2013-10-03 08:02:00,75.1,75.0,30.00,ENE,68,1.0,6.0,98,0.01,,,0.01,weatherlink.com 1.10,2013-10-03 13:02:00,
2013-10-03 08:17:00,75.9,75.0,30.00,ENE,65,3.0,7.0,96,0.01,,,0.01,weatherlink.com 1.10,2013-10-03 13:17:00,
2013-10-03 08:32:00,77.4,76.0,30.01,NE,36,0.0,4.0,95,0.01,,,0.01,weatherlink.com 1.10,2013-10-03 13:32:00,
2013-10-03 08:47:00,78.6,76.0,30.01,East,98,2.0,5.0,91,0.01,,,0.01,weatherlink.com 1.10,2013-10-03 13:47:00,
2013-10-03 09:02:00,79.7,76.0,30.02,East,91,4.0,8.0,89,0.00,,,0.01,weatherlink.com 1.10,2013-10-03 14:02:00,
2013-10-03 09:17:00,80.7,77.0,30.02,NNE,25,5.0,7.0,87,0.00,,,0.01,weatherlink.com 1.10,2013-10-03 14:17:00,
2013-10-03 09:32:00,80.7,76.0,30.03,ENE,76,3.0,6.0,86,0.00,,,0.01,weatherlink.com 1.10,2013-10-03 14:32:00,
2013-10-03 09:47:00,81.7,77.0,30.03,East,82,2.0,8.0,85,0.00,,,0.01,weatherlink.com 1.10,2013-10-03 14:47:00,
2013-10-03 10:02:00,82.1,77.0,30.03,SE,134,2.0,8.0,83,0.00,,,0.01,weatherlink.com 1.10,2013-10-03 15:02:00,
2013-10-03 10:17:00,81.8,77.0,30.03,ESE,110,6.0,7.0,84,0.00,,,0.01,weatherlink.com 1.10,2013-10-03 15:17:00,
2013-10-03 10:32:00,82.5,77.0,30.04,ESE,111,8.0,10.0,82,0.00,,,0.01,weatherlink.com 1.10,2013-10-03 15:32:00,
2013-10-03 10:47:00,83.0,77.0,30.03,East,91,5.0,10.0,82,0.00,,,0.01,weatherlink.com 1.10,2013-10-03 15:47:00,
2013-10-03 11:02:00,84.3,78.0,30.03,NE,53,3.0,12.0,80,0.00,,,0.01,weatherlink.com 1.10,2013-10-03 16:02:00,
2013-10-03 11:17:00,84.4,77.0,30.03,ESE,105,8.0,10.0,79,0.00,,,0.01,weatherlink.com 1.10,2013-10-03 16:17:00,
2013-10-03 11:32:00,84.4,77.0,30.02,NE,55,5.0,10.0,79,0.00,,,0.01,weatherlink.com 1.10,2013-10-03 16:32:00,
2013-10-03 11:47:00,84.1,77.0,30.02,East,93,3.0,10.0,80,0.00,,,0.01,weatherlink.com 1.10,2013-10-03 16:47:00,
2013-10-03 12:02:00,84.9,77.0,30.01,ESE,121,3.0,10.0,77,0.00,,,0.01,weatherlink.com 1.10,2013-10-03 17:02:00,
2013-10-03 12:17:00,85.8,78.0,30.01,ESE,121,1.0,8.0,77,0.00,,,0.01,weatherlink.com 1.10,2013-10-03 17:17:00,
2013-10-03 12:32:00,85.9,78.0,30.01,ENE,75,6.0,8.0,76,0.00,,,0.01,weatherlink.com 1.10,2013-10-03 17:32:00,
2013-10-03 12:47:00,85.7,77.0,30.00,ESE,117,5.0,10.0,76,0.00,,,0.01,weatherlink.com 1.10,2013-10-03 17:47:00,
2013-10-03 13:03:00,85.8,77.0,29.99,ENE,74,4.0,10.0,75,0.00,,,0.01,weatherlink.com 1.10,2013-10-03 18:03:00,
2013-10-03 13:18:00,85.2,77.0,29.99,SSE,155,3.0,9.0,77,0.00,,,0.01,weatherlink.com 1.10,2013-10-03 18:18:00,
2013-10-03 13:33:00,85.0,77.0,29.98,ESE,107,7.0,12.0,78,0.00,,,0.01,weatherlink.com 1.10,2013-10-03 18:33:00,
2013-10-03 13:48:00,86.5,78.0,29.98,ENE,75,4.0,11.0,75,0.00,,,0.01,weatherlink.com 1.10,2013-10-03 18:48:00,
2013-10-03 14:03:00,87.2,78.0,29.97,SE,131,5.0,7.0,75,0.00,,,0.01,weatherlink.com 1.10,2013-10-03 19:03:00,
2013-10-03 14:18:00,87.6,78.0,29.96,NE,41,5.0,11.0,72,0.00,,,0.01,weatherlink.com 1.10,2013-10-03 19:18:00,
2013-10-03 14:33:00,87.3,77.0,29.96,East,89,3.0,10.0,72,0.00,,,0.01,weatherlink.com 1.10,2013-10-03 19:33:00,
2013-10-03 14:48:00,87.2,78.0,29.96,ENE,70,5.0,10.0,73,0.00,,,0.01,weatherlink.com 1.10,2013-10-03 19:48:00,
2013-10-03 15:03:00,87.1,78.0,29.96,SE,145,5.0,12.0,74,0.00,,,0.01,weatherlink.com 1.10,2013-10-03 20:03:00,
2013-10-03 15:18:00,87.0,77.0,29.96,ENE,75,5.0,10.0,73,0.00,,,0.01,weatherlink.com 1.10,2013-10-03 20:18:00,
2013-10-03 15:33:00,87.1,78.0,29.96,NE,51,6.0,12.0,74,0.00,,,0.01,weatherlink.com 1.10,2013-10-03 20:33:00,
2013-10-03 15:48:00,83.8,76.0,29.97,SSE,150,18.0,20.0,78,0.00,,,0.01,weatherlink.com 1.10,2013-10-03 20:48:00,
2013-10-03 16:03:00,76.9,74.0,29.98,SE,146,7.0,17.0,91,0.08,,,0.09,weatherlink.com 1.10,2013-10-03 21:03:00,
2013-10-03 16:18:00,75.3,74.0,29.98,NE,41,1.0,15.0,94,0.09,,,0.10,weatherlink.com 1.10,2013-10-03 21:18:00,
2013-10-03 16:33:00,75.5,74.0,29.97,ENE,63,1.0,10.0,95,0.09,,,0.10,weatherlink.com 1.10,2013-10-03 21:33:00,
2013-10-03 16:48:00,75.8,74.0,29.97,ESE,115,2.0,7.0,95,0.10,,,0.11,weatherlink.com 1.10,2013-10-03 21:48:00,
2013-10-03 17:03:00,75.5,74.0,29.97,SE,132,6.0,8.0,95,0.02,,,0.11,weatherlink.com 1.10,2013-10-03 22:03:00,
2013-10-03 17:18:00,75.5,74.0,29.97,ENE,78,0.0,11.0,94,0.01,,,0.11,weatherlink.com 1.10,2013-10-03 22:18:00,
2013-10-03 17:33:00,75.9,74.0,29.97,NE,56,3.0,9.0,94,0.01,,,0.11,weatherlink.com 1.10,2013-10-03 22:33:00,
2013-10-03 17:48:00,75.7,73.0,29.98,SE,127,5.0,7.0,92,0.00,,,0.11,weatherlink.com 1.10,2013-10-03 22:48:00,
2013-10-03 18:03:00,75.7,73.0,29.98,ESE,114,1.0,4.0,90,0.00,,,0.11,weatherlink.com 1.10,2013-10-03 23:03:00,
2013-10-03 18:18:00,75.7,74.0,29.98,South,184,1.0,11.0,93,0.00,,,0.11,weatherlink.com 1.10,2013-10-03 23:18:00,
2013-10-03 18:33:00,75.5,74.0,29.97,East,81,0.0,9.0,94,0.00,,,0.11,weatherlink.com 1.10,2013-10-03 23:33:00,
2013-10-03 18:48:00,75.1,73.0,29.97,ESE,114,1.0,7.0,94,0.00,,,0.11,weatherlink.com 1.10,2013-10-03 23:48:00,
2013-10-03 19:03:00,75.7,74.0,29.97,East,87,1.0,5.0,93,0.00,,,0.11,weatherlink.com 1.10,2013-10-04 00:03:00,
2013-10-03 19:18:00,75.8,74.0,29.97,East,86,0.0,3.0,93,0.00,,,0.11,weatherlink.com 1.10,2013-10-04 00:18:00,
2013-10-03 19:33:00,75.9,74.0,29.98,East,91,0.0,3.0,93,0.00,,,0.11,weatherlink.com 1.10,2013-10-04 00:33:00,
2013-10-03 19:48:00,75.9,74.0,29.98,East,98,0.0,0.0,93,0.00,,,0.11,weatherlink.com 1.10,2013-10-04 00:48:00,
2013-10-03 20:03:00,76.1,74.0,29.99,NE,54,0.0,2.0,94,0.00,,,0.11,weatherlink.com 1.10,2013-10-04 01:03:00,
2013-10-03 20:18:00,76.1,75.0,29.99,ENE,68,0.0,7.0,95,0.03,,,0.14,weatherlink.com 1.10,2013-10-04 01:18:00,
2013-10-03 20:33:00,76.0,75.0,30.00,ESE,102,0.0,3.0,96,0.03,,,0.14,weatherlink.com 1.10,2013-10-04 01:33:00,
2013-10-03 20:48:00,76.1,75.0,30.00,ESE,102,0.0,0.0,97,0.03,,,0.14,weatherlink.com 1.10,2013-10-04 01:48:00,
2013-10-03 21:03:00,76.4,76.0,30.01,SE,134,0.0,0.0,98,0.03,,,0.14,weatherlink.com 1.10,2013-10-04 02:03:00,
2013-10-03 21:18:00,76.6,76.0,30.01,ESE,117,0.0,3.0,98,0.01,,,0.15,weatherlink.com 1.10,2013-10-04 02:18:00,
2013-10-03 21:33:00,76.9,76.0,30.01,ENE,76,1.0,2.0,96,0.01,,,0.15,weatherlink.com 1.10,2013-10-04 02:33:00,
2013-10-03 21:48:00,77.3,76.0,30.01,ESE,107,0.0,5.0,94,0.01,,,0.15,weatherlink.com 1.10,2013-10-04 02:48:00,
2013-10-03 22:03:00,77.4,76.0,30.02,ESE,104,0.0,4.0,94,0.01,,,0.15,weatherlink.com 1.10,2013-10-04 03:03:00,
2013-10-03 22:18:00,77.5,75.0,30.02,ESE,120,1.0,5.0,93,0.00,,,0.15,weatherlink.com 1.10,2013-10-04 03:18:00,
2013-10-03 22:33:00,77.6,75.0,30.02,East,88,0.0,6.0,92,0.00,,,0.15,weatherlink.com 1.10,2013-10-04 03:33:00,
2013-10-03 22:48:00,77.4,76.0,30.01,SE,130,0.0,0.0,94,0.00,,,0.15,weatherlink.com 1.10,2013-10-04 03:48:00,
2013-10-03 23:34:00,77.2,75.0,30.00,SE,137,0.0,0.0,94,0.00,,,0.15,weatherlink.com 1.10,2013-10-04 04:34:00,
2013-10-03 23:48:00,76.5,75.0,30.00,SE,137,0.0,0.0,95,0.00,,,0.15,weatherlink.com 1.10,2013-10-04 04:48:00,